Overview Statistics Trail Chart Weather Telemetry Raw packets
 

This is the latest recevied weather packets stored in our database for station/object K1BES. If no packets are shown the sender has not sent any weather packets the latest 10 day(s).

<< 94 95 96 97 98 99 100 >>
Time Temp. Humidity Pressure Rain* Wind** Luminosity Snow
1787946702 35° C 60% 1018.4 hPa 0 mm - 786 W/m² -
1787946398 34.44° C 59% 1018.4 hPa 0 mm - 805 W/m² -
1787946097 34.44° C 62% 1018.3 hPa 0 mm - 818 W/m² -
1787945793 33.89° C 61% 1018.3 hPa 0 mm - 832 W/m² -
1787945493 34.44° C 60% 1018.2 hPa 0 mm - 846 W/m² -
1787945188 34.44° C 60% 1018.2 hPa 0 mm - 859 W/m² -
1787944886 35° C 60% 1018.4 hPa 0 mm - 873 W/m² -
1787944586 35° C 59% 1018.4 hPa 0 mm - 884 W/m² -
1787944281 35° C 58% 1018.5 hPa 0 mm - 896 W/m² -
1787943981 35° C 59% 1018.4 hPa 0 mm - 906 W/m² -
1787943678 34.44° C 62% 1018.4 hPa 0 mm - 914 W/m² -
1787943378 34.44° C 61% 1018.5 hPa 0 mm - 926 W/m² -
1787943073 35° C 59% 1018.7 hPa 0 mm - 938 W/m² -
1787942768 34.44° C 60% 1018.8 hPa 0 mm - 946 W/m² -
1787942463 34.44° C 60% 1018.9 hPa 0 mm - 954 W/m² -
1787942162 35° C 60% 1018.9 hPa 0 mm - 962 W/m² -
1787941858 35° C 59% 1019.2 hPa 0 mm - 966 W/m² -
1787941557 34.44° C 60% 1019 hPa 0 mm - 974 W/m² -
1787941252 35° C 61% 1019.2 hPa 0 mm - 982 W/m² -
1787940951 34.44° C 61% 1019.2 hPa 0 mm - 984 W/m² -
1787940650 34.44° C 62% 1019.6 hPa 0 mm - 991 W/m² -
1787940349 34.44° C 60% 1019.6 hPa 0 mm - 997 W/m² -
1787940049 34.44° C 60% 1019.5 hPa 0 mm - 999 W/m² -
1787939748 34.44° C 61% 1019.8 hPa 0 mm - 1004 W/m² -
1787939443 34.44° C 60% 1020 hPa 0 mm - 1005 W/m² -

* Rain latest hour (hover to see other rain measurements)
** Current wind speed in m/s (hover to see current wind gust speed)